Dewpoint
31 28 25 22 22 21 21 22 23 24 23 24 25 26 26 25 26 27 27 28 29 31 34 36 37 38 38 38 38 36 35 35 33 33 34 34 33 34 32 34 34 33 33
21 18 19 21 22 21 20 21 20 21 22 22 22 23 22 24 25 25 26 26 26 27 27 31 32 30 35 37 37 36 35 35 34 33 33 34 33 32 33 34 32 29 30
17 18 19 19 19 19 20 20 20 21 22 22 23 23 24 25 25 25 25 26 26 27 28 28 29 29 29 30 33 35 36 34 35 34 33 35 35 34 33 33 32 32 29
19 18 18 18 19 19 19 20 20 20 21 22 23 24 26 26 27 27 26 28 30 30 31 31 31 31 31 32 30 30 30 32 33 34 34 33 33 33 33 31 31 32 30
17 17 18 19 19 19 20 20 21 22 23 23 24 24 25 26 25 28 30 31 32 31 32 31 32 34 37 37 34 34 34 34 33 33 33 31 31 31 31 31 31 31 30
16 15 17 18 19 21 20 20 22 22 22 22 23 23 25 23 33 35 33 32 32 31 31 32 33 36 35 36 36 37 36 34 31 31 31 30 28 29 30 31 30 30 30
16 15 16 17 19 21 19 20 21 21 21 22 22 23 24 24 33 33 34 32 31 31 33 33 31 31 34 33 34 35 35 36 37 35 31 30 31 31 30 31 31 32 31
16 15 17 18 19 20 22 22 22 21 21 22 23 23 24 25 31 32 33 32 31 31 32 32 31 31 32 31 32 31 32 32 32 32 31 32 32 34 35 33 34 35 35
17 16 18 20 21 22 23 23 23 22 22 22 22 23 24 24 32 31 31 30 31 30 29 30 30 31 33 34 32 33 33 34 35 37 38 38 38 39 38 36 34 32 32
17 20 21 22 22 23 23 22 23 23 22 23 23 25 27 25 30 32 30 29 30 30 28 30 34 31 34 34 32 33 34 34 33 34 35 34 36 35 37 38 35 32 32
20 22 23 23 22 21 22 22 22 21 21 23 22 22 21 24 25 30 32 29 28 30 30 31 30 33 34 35 35 34 35 35 35 36 34 35 35 35 36 38 36 35 32
19 21 20 20 19 19 21 20 20 19 19 20 20 20 22 23 29 30 32 32 32 29 30 31 31 35 36 37 36 36 37 36 34 35 34 34 34 34 35 35 35 35 36
17 17 18 18 19 20 19 19 20 20 21 21 21 21 23 25 27 31 32 32 32 31 32 33 36 36 37 36 36 36 34 33 35 33 33 32 34 34 32 32 33 34 35
15 16 17 17 18 19 21 21 21 22 21 20 21 23 25 27 28 29 29 31 32 31 32 33 34 35 35 34 32 31 32 34 33 32 33 33 33 32 32 32 32 31 31
15 16 17 18 18 20 21 21 21 21 22 22 25 27 28 28 27 30 31 31 31 32 34 33 32 32 33 30 28 29 34 34 33 33 32 32 31 31 31 32 32 31 29
16 18 20 21 22 22 22 22 28 31 32 32 32 30 28 30 31 32 34 35 34 34 31 33 32 33 30 28 29 30 31 33 33 32 32 32 31 31 31 31 31 30 29
20 20 22 23 23 24 24 23 22 25 30 31 32 32 31 30 32 33 34 34 33 31 31 29 31 32 29 30 31 31 30 33 33 32 32 32 32 32 31 30 29 29 29
21 27 24 25 25 24 24 24 25 25 25 25 28 29 29 29 31 32 33 33 28 29 27 31 28 30 32 32 32 31 31 32 32 32 32 32 32 31 30 29 29 28 27
22 23 24 24 25 25 25 26 26 26 25 25 26 27 28 29 29 30 32 29 26 27 26 31 29 32 32 32 32 32 32 32 32 32 32 32 32 31 30 30 29 29 28
24 27 27 26 26 26 26 26 26 25 26 26 25 26 27 26 26 30 27 26 28 26 28 27 30 32 32 32 32 32 32 32 32 32 32 32 31 31 30 29 28 27 26
24 25 27 26 26 27 26 26 26 27 27 27 27 27 28 26 26 28 27 28 24 25 27 29 29 30 32 32 32 32 32 32 32 32 32 31 31 30 30 29 27 26 26
27 27 27 27 27 27 27 27 27 26 25 25 24 26 28 27 29 25 27 24 25 26 29 30 30 32 32 32 31 31 32 31 32 32 31 31 30 30 28 28 27 26 26
28 28 28 28 29 29 27 26 25 26 25 24 25 25 27 26 25 25 24 24 24 26 29 30 31 31 32 32 32 32 32 31 32 32 31 30 29 29 28 26 25 25 23
29 29 28 26 27 28 28 29 28 27 26 25 25 27 25 24 24 24 24 25 26 28 29 30 30 31 31 31 32 32 32 32 32 31 30 29 29 29 26 25 24 23 22
28 28 28 29 29 29 29 28 28 27 26 26 25 23 23 24 24 25 25 26 27 28 28 30 31 31 31 31 31 31 31 31 31 30 29 28 27 25 25 24 23 23 21
29 28 29 29 29 29 29 28 26 26 27 24 23 24 24 25 25 25 25 26 27 28 30 31 31 30 29 31 30 30 30 30 28 29 27 26 24 25 24 23 21 22 21
Lifted_Index
14 14 15 15 16 16 15 15 16 17 17 18 18 18 18 19 19 19 19 18 18 17 16 16 15 14 14 13 13 14 14 14 14 14 14 13 13 13 13 14 15 15 15
15 15 15 16 15 15 15 16 17 18 18 18 19 19 19 19 19 19 19 18 18 17 17 16 15 15 14 14 14 14 14 14 15 15 15 14 14 13 13 14 14 15 15
15 16 16 15 15 15 16 17 18 18 19 19 19 19 19 19 19 19 19 18 18 17 17 16 16 15 15 14 14 14 14 14 15 15 15 15 15 14 14 14 13 13 14
16 16 15 15 16 16 17 18 18 18 18 18 18 18 18 18 18 18 18 18 17 17 16 16 15 15 15 15 14 14 14 15 15 15 15 15 15 15 14 14 13 13 12
15 15 15 15 16 17 17 17 17 17 17 17 18 18 18 18 18 18 17 17 17 16 16 15 15 15 14 14 14 14 14 14 14 14 15 15 15 15 15 14 14 13 13
15 14 15 16 16 16 16 16 16 16 16 17 17 18 18 17 17 17 17 17 17 16 16 15 15 14 13 13 13 13 14 14 14 14 14 15 15 15 15 15 14 13 13
14 14 15 16 16 16 15 15 15 15 16 16 17 17 17 17 17 17 17 17 17 16 16 16 15 14 13 13 13 13 14 14 14 14 14 15 15 15 15 14 14 13 12
14 14 15 16 16 15 14 14 14 15 16 16 17 17 17 16 16 16 16 16 16 16 16 15 15 14 13 13 14 14 14 14 14 14 14 14 14 13 13 13 12 11 11
14 15 15 15 14 14 14 14 14 15 16 16 16 16 16 16 16 16 15 15 15 15 15 14 14 14 14 14 14 14 14 14 14 14 13 12 12 11 10 10 9 9 9
14 14 14 13 13 13 13 14 15 15 16 16 16 16 16 15 15 15 15 14 14 14 14 14 14 14 14 14 13 14 13 13 12 11 10 9 9 8 8 8 7 7 6
13 12 12 12 12 13 13 14 15 15 15 15 15 15 15 15 14 14 14 14 14 14 14 14 14 14 13 13 12 11 11 10 9 8 8 7 7 7 7 6 6 5 5
11 11 11 12 12 13 14 14 15 15 14 14 14 14 14 14 14 13 13 13 13 14 14 14 13 12 11 10 9 8 7 7 6 6 6 6 6 6 6 5 5 5 5
11 11 11 12 13 13 14 14 14 14 13 13 14 14 14 13 13 13 13 13 13 13 13 12 11 10 9 7 6 6 6 6 5 5 5 5 5 5 5 5 5 5 6
11 11 12 12 13 13 13 13 13 13 13 13 13 13 13 13 13 12 12 12 12 11 11 10 9 8 6 6 5 6 6 6 5 5 4 4 4 4 4 5 6 6 6
11 11 12 12 13 13 13 13 12 12 12 12 12 12 12 12 12 12 11 10 10 9 8 8 7 6 5 5 6 6 6 6 5 5 5 4 4 5 5 6 7 7 8
11 12 12 12 13 13 12 12 12 12 11 11 11 11 11 11 11 10 9 8 8 7 7 6 6 5 5 6 6 6 6 6 6 5 5 5 5 5 6 7 8 8 9
12 12 12 12 12 12 12 11 11 11 10 10 9 9 9 9 9 8 8 7 6 6 6 6 6 6 6 6 7 6 6 6 6 6 6 6 6 6 7 8 8 9 9
12 12 12 12 12 12 11 11 10 10 9 9 8 8 8 8 8 7 7 6 6 6 6 7 6 7 7 7 7 6 6 6 6 6 7 7 7 7 8 8 9 9 10
12 12 12 11 11 10 10 9 9 8 8 8 8 7 7 7 7 7 6 6 7 7 7 7 7 7 7 7 7 7 6 6 7 7 7 8 8 8 8 9 9 10 10
12 11 11 10 10 9 9 8 8 7 7 7 7 7 7 7 7 7 7 7 8 8 8 8 8 7 7 7 7 7 7 7 7 7 8 8 9 9 9 9 10 10 10
11 10 10 9 9 8 8 7 7 6 6 6 6 7 7 7 7 7 8 8 9 9 9 9 8 8 7 7 7 7 7 7 7 8 8 9 9 9 9 9 10 10 10
10 9 9 8 8 7 7 7 6 6 6 6 6 7 7 7 8 8 9 10 10 10 10 9 9 8 7 7 7 7 7 7 7 8 8 9 9 9 9 10 10 10 11
9 8 8 7 7 7 7 6 6 6 6 6 7 7 8 8 9 9 10 11 11 10 10 9 9 8 7 7 7 7 7 7 7 8 8 8 9 9 10 10 11 11 10
8 7 7 7 7 6 6 6 6 6 7 7 7 8 8 9 10 10 11 11 11 10 10 9 8 8 7 7 7 7 7 7 7 8 8 9 9 9 10 11 11 10 10
8 7 7 7 7 7 7 7 7 7 7 7 8 9 9 10 10 11 11 11 10 10 9 8 8 8 7 7 7 7 7 7 8 8 8 9 10 10 11 11 10 10 11
8 7 7 7 7 7 7 7 7 7 7 8 9 9 10 10 11 11 11 11 10 9 9 8 8 8 7 7 7 7 7 8 8 8 9 9 10 11 11 10 10 11 11